Total_Precipitation_Accumulation
0.27 0.41 0.50 0.61 0.58 0.41 0.38 0.23 0.18 0.20 0.17 0.12 0.09 0.11 0.14 0.28 0.30 0.32 0.25 0.14 0.29 0.35
0.17 0.24 0.38 0.47 0.53 0.53 0.47 0.46 0.28 0.21 0.18 0.13 0.09 0.07 0.16 0.23 0.25 0.27 0.30 0.28 0.21 0.21
0.12 0.16 0.23 0.34 0.45 0.45 0.50 0.59 0.53 0.34 0.26 0.16 0.12 0.06 0.09 0.24 0.25 0.22 0.27 0.31 0.27 0.17
0.07 0.10 0.19 0.27 0.31 0.39 0.40 0.50 0.62 0.56 0.45 0.35 0.16 0.11 0.06 0.11 0.18 0.26 0.26 0.27 0.25 0.17
0.02 0.04 0.08 0.18 0.29 0.29 0.34 0.45 0.49 0.67 0.59 0.50 0.32 0.15 0.10 0.08 0.10 0.18 0.23 0.22 0.21 0.16
0.00 0.01 0.04 0.10 0.18 0.26 0.28 0.33 0.53 0.57 0.71 0.62 0.47 0.27 0.14 0.09 0.04 0.10 0.16 0.18 0.17 0.13
0.01 0.02 0.04 0.05 0.13 0.18 0.24 0.33 0.37 0.58 0.67 0.74 0.65 0.45 0.25 0.18 0.08 0.06 0.11 0.16 0.16 0.12
0.02 0.03 0.03 0.04 0.05 0.13 0.17 0.23 0.36 0.42 0.56 0.75 0.77 0.63 0.42 0.22 0.16 0.09 0.10 0.11 0.16 0.15
0.01 0.02 0.03 0.04 0.06 0.06 0.11 0.16 0.25 0.41 0.47 0.54 0.78 0.83 0.69 0.38 0.19 0.14 0.11 0.13 0.12 0.14
0.02 0.03 0.04 0.06 0.07 0.07 0.08 0.11 0.18 0.31 0.42 0.50 0.60 0.86 0.84 0.60 0.28 0.18 0.10 0.10 0.13 0.15
0.02 0.03 0.04 0.06 0.06 0.08 0.09 0.11 0.14 0.21 0.31 0.40 0.54 0.82 0.90 0.79 0.52 0.30 0.15 0.07 0.10 0.14
0.03 0.04 0.05 0.07 0.08 0.10 0.11 0.12 0.17 0.20 0.26 0.34 0.45 0.68 0.78 0.74 0.83 0.68 0.41 0.24 0.15 0.18
0.04 0.05 0.07 0.10 0.12 0.15 0.18 0.23 0.27 0.26 0.30 0.37 0.48 0.65 0.66 0.62 0.87 0.95 0.76 0.55 0.30 0.24
0.04 0.06 0.08 0.10 0.13 0.16 0.20 0.24 0.23 0.23 0.24 0.28 0.44 0.56 0.52 0.48 0.62 0.68 0.72 0.72 0.60 0.33